GW4533 Weather Reports


time (UTC)temp
C
wind
direction
speed
KPH
gust
KPH
rain 1hr
cm
rain 24hr
cm
rain mn
cm
humidity
%
barometer
mb
20260506184807 12 314 3.2 4.8 0.00 0.84 0.84 55 1013.9
20260506184305 11 290 1.6 3.2 0.00 0.84 0.84 57 1014.1
20260506183801 12 272 3.2 6.4 0.00 0.84 0.84 56 1014.2
20260506183257 12 349 1.6 4.8 0.00 0.84 0.84 55 1014.0
20260506182754 13 11 6.4 14.5 0.00 0.84 0.84 53 1014.0
20260506182251 13 341 4.8 6.4 0.00 0.84 0.84 51 1013.9
20260506181749 13 301 4.8 6.4 0.00 0.84 0.84 51 1014.0
20260506181246 13 302 1.6 4.8 0.00 0.84 0.84 53 1013.7
20260506180743 14 286 3.2 6.4 0.00 0.84 0.84 54 1013.6
20260506180239 13 311 3.2 4.8 0.00 0.84 0.84 53 1013.8
20260506175736 13 175 1.6 3.2 0.00 0.84 0.84 55 1013.9
20260506175233 13 318 3.2 3.2 0.00 0.84 0.84 52 1013.8
20260506174730 13 6 0.0 4.8 0.00 0.84 0.84 54 1013.9
20260506174227 13 248 1.6 4.8 0.00 0.84 0.84 52 1013.9
20260506173725 13 302 4.8 9.7 0.00 0.84 0.84 52 1013.9
20260506173221 13 180 3.2 4.8 0.00 0.84 0.84 51 1013.9
20260506172718 13 287 3.2 9.7 0.00 0.84 0.84 55 1013.7
20260506172215 13 46 3.2 4.8 0.00 0.84 0.84 55 1013.8
20260506171712 13 309 1.6 3.2 0.00 0.84 0.84 57 1013.8
20260506171210 13 336 0.0 4.8 0.00 0.84 0.84 59 1013.7
20260506170707 12 245 3.2 4.8 0.00 0.84 0.84 61 1013.6
20260506170203 12 286 0.0 1.6 0.00 0.84 0.84 59 1013.8
20260506165702 12 260 1.6 4.8 0.00 0.84 0.84 61 1013.6
20260506165158 12 350 1.6 4.8 0.00 0.84 0.84 63 1013.7
20260506164655 12 141 0.0 3.2 0.00 0.84 0.84 63 1013.8
20260506164153 12 255 1.6 4.8 0.00 0.84 0.84 61 1013.8
20260506163649 12 312 1.6 12.9 0.00 0.84 0.84 62 1014.0
20260506163144 12 330 1.6 1.6 0.00 0.84 0.84 60 1014.0
20260506162640 12 249 4.8 6.4 0.00 0.84 0.84 60 1014.0
20260506162138 13 347 1.6 1.6 0.00 0.84 0.84 62 1014.1
20260506161635 12 15 3.2 9.7 0.00 0.84 0.84 62 1013.6
20260506161132 12 155 0.0 3.2 0.00 0.84 0.84 62 1013.5
20260506160630 12 302 1.6 3.2 0.00 0.84 0.84 67 1013.6
20260506160126 13 196 1.6 1.6 0.00 0.84 0.84 62 1013.5
20260506155625 12 264 1.6 3.2 0.00 0.84 0.84 59 1013.6
20260506155122 11 336 0.0 3.2 0.00 0.84 0.84 67 1013.4
20260506153219 11 228 0.0 1.6 0.00 0.84 0.84 68 1013.4
20260506152715 11 315 3.2 9.7 0.00 0.84 0.84 67 1013.4
20260506152213 11 262 1.6 6.4 0.00 0.84 0.84 69 1013.4
20260506151712 11 253 1.6 3.2 0.00 0.84 0.84 73 1013.2
20260506151208 11 349 3.2 4.8 0.00 0.84 0.84 72 1013.4
20260506150704 10 4 0.0 6.4 0.00 0.84 0.84 71 1013.3
20260506150202 10 272 1.6 4.8 0.00 0.84 0.84 73 1013.4
20260506145659 11 325 6.4 6.4 0.00 0.84 0.84 71 1013.1
20260506145155 11 274 1.6 3.2 0.00 0.84 0.84 73 1012.9
20260506144653 10 265 0.0 3.2 0.00 0.84 0.84 72 1012.9
20260506144149 10 291 4.8 6.4 0.00 0.84 0.84 72 1013.0
20260506143647 9 296 4.8 6.4 0.00 0.84 0.84 74 1012.6
20260506143145 9 249 3.2 4.8 0.00 0.84 0.84 78 1012.3
20260506142643 9 268 3.2 4.8 0.00 0.84 0.84 77 1012.2
20260506142141 9 265 3.2 3.2 0.00 0.84 0.84 77 1012.6
20260506141638 8 306 3.2 4.8 0.00 0.84 0.84 78 1012.6
20260506141136 8 277 4.8 4.8 0.00 0.84 0.84 82 1012.4
20260506140633 8 296 1.6 4.8 0.00 0.84 0.84 83 1012.4
20260506140131 8 320 1.6 6.4 0.00 0.84 0.84 82 1012.4
20260506135628 7 251 1.6 3.2 0.00 0.84 0.84 84 1012.4
20260506135124 7 315 6.4 9.7 0.00 0.84 0.84 85 1012.4
20260506134620 7 319 0.0 4.8 0.00 0.84 0.84 88 1012.3
20260506134116 7 273 0.0 4.8 0.00 0.84 0.84 87 1012.6
20260506133614 7 273 0.0 1.6 0.00 0.84 0.84 88 1012.6
20260506133111 7 284 0.0 4.8 0.00 0.84 0.84 90 1012.4
20260506132608 7 198 0.0 0.0 0.00 0.84 0.84 92 1012.3
20260506132105 7 197 1.6 1.6 0.00 0.84 0.84 92 1012.3
20260506131602 6 241 1.6 1.6 0.00 0.84 0.84 92 1012.3
20260506131059 6 276 3.2 4.8 0.00 0.84 0.84 92 1012.4
20260506130555 6 289 1.6 4.8 0.00 0.84 0.84 93 1012.2
20260506130053 6 282 0.0 3.2 0.00 0.84 0.84 94 1012.2
20260506125551 6 304 4.8 6.4 0.00 0.84 0.84 93 1011.9
20260506125049 6 304 1.6 3.2 0.00 0.84 0.84 94 1011.7
20260506124546 6 331 0.0 3.2 0.00 0.84 0.84 94 1011.6
20260506124044 6 310 3.2 6.4 0.00 0.84 0.84 95 1011.7
20260506123541 6 288 1.6 4.8 0.00 0.84 0.84 95 1011.8
20260506123040 6 275 0.0 3.2 0.00 0.84 0.84 95 1011.4
20260506122536 6 256 1.6 3.2 0.00 0.84 0.84 96 1011.5
20260506122034 6 278 0.0 1.6 0.00 0.84 0.84 96 1011.4
20260506121531 6 277 3.2 4.8 0.00 0.84 0.84 97 1011.2
20260506121027 6 309 0.0 1.6 0.00 0.84 0.84 97 1011.1
20260506120525 6 286 0.0 3.2 0.00 0.84 0.84 97 1011.2
20260506120023 6 301 1.6 3.2 0.00 0.84 0.84 98 1010.9
20260506115520 6 198 1.6 1.6 0.00 0.84 0.84 98 1010.8
20260506115019 6 289 0.0 1.6 0.00 0.84 0.84 98 1010.9
20260506114515 5 352 0.0 1.6 0.00 0.84 0.84 98 1010.9
20260506114014 5 313 0.0 1.6 0.00 0.84 0.84 98 1010.7
20260506113511 5 273 0.0 0.0 0.00 0.84 0.84 98 1010.7
20260506113009 5 308 0.0 0.0 0.00 0.84 0.84 98 1010.9
20260506112505 5 270 0.0 0.0 0.00 0.84 0.84 99 1011.0
20260506112002 5 263 0.0 3.2 0.00 0.84 0.84 99 1011.2
20260506111500 5 305 0.0 4.8 0.00 0.84 0.84 99 1011.1
20260506110957 5 347 1.6 3.2 0.00 0.84 0.84 99 1011.3
20260506110455 5 311 1.6 1.6 0.00 0.84 0.84 99 1010.6
20260506105951 5 268 0.0 1.6 0.00 0.84 0.84 99 1010.3
20260506105448 6 262 0.0 0.0 0.00 0.84 0.84 99 1010.2
20260506104945 6 55 0.0 3.2 0.00 0.84 0.84 99 1010.0
20260506104443 6 231 0.0 0.0 0.00 0.84 0.84 99 1010.3
20260506103941 6 310 1.6 3.2 0.00 0.84 0.84 99 1010.6
20260506103438 6 311 3.2 6.4 0.00 0.84 0.84 99 1010.7
20260506102935 6 199 0.0 3.2 0.00 0.84 0.84 99 1010.3
20260506102433 6 163 0.0 0.0 0.00 0.84 0.84 99 1010.0
20260506101930 6 296 0.0 1.6 0.00 0.84 0.84 99 1010.1
20260506101426 6 279 0.0 1.6 0.00 0.84 0.84 99 1009.7
20260506100924 6 308 0.0 3.2 0.00 0.84 0.84 99 1009.8
20260506100422 6 288 1.6 1.6 0.00 0.84 0.84 99 1009.6
20260506095920 6 279 1.6 3.2 0.00 0.84 0.84 99 1009.4
20260506095418 6 64 1.6 1.6 0.00 0.84 0.84 99 1009.4
20260506094914 6 298 0.0 0.0 0.00 0.84 0.84 99 1009.2
20260506094413 6 166 0.0 0.0 0.00 0.84 0.84 99 1009.2
20260506093910 6 307 0.0 1.6 0.00 0.84 0.84 99 1008.9
20260506093407 6 160 0.0 0.0 0.00 0.84 0.84 99 1008.8
20260506092905 6 98 0.0 1.6 0.00 0.84 0.84 99 1009.0
20260506092403 6 319 0.0 1.6 0.00 0.84 0.84 99 1009.4
20260506091859 6 12 0.0 1.6 0.18 0.84 0.84 99 1009.4
20260506091357 6 353 3.2 4.8 0.00 0.81 0.81 99 1009.7
20260506090854 6 327 0.0 1.6 0.00 0.81 0.81 99 1009.6
20260506090352 6 343 0.0 1.6 0.18 0.81 0.81 99 1010.1
20260506085848 6 274 0.0 1.6 0.18 0.81 0.81 99 1010.1
20260506085345 6 284 0.0 1.6 0.00 0.79 0.79 99 1009.8
20260506084841 6 318 0.0 3.2 0.00 0.79 0.79 99 1009.8
20260506084338 6 292 0.0 0.0 0.13 0.79 0.79 99 1010.0
20260506083834 6 28 1.6 3.2 0.13 0.79 0.79 99 1010.2
20260506083332 6 16 0.0 3.2 0.00 0.76 0.76 99 1010.1
20260506082829 6 327 3.2 4.8 0.00 0.76 0.76 99 1010.2
20260506082326 6 212 0.0 0.0 0.18 0.76 0.76 99 1009.7
20260506081822 6 344 1.6 3.2 0.18 0.76 0.76 99 1009.7
20260506081320 6 307 0.0 1.6 0.00 0.74 0.74 99 1009.6
20260506080817 6 307 0.0 1.6 0.00 0.74 0.74 99 1009.4
20260506080313 6 236 0.0 0.0 0.00 0.74 0.74 99 1009.4
20260506073258 6 3 0.0 4.8 0.13 0.69 0.69 99 1010.0
20260506072754 6 280 0.0 1.6 0.13 0.69 0.69 99 1009.8
20260506072252 6 134 1.6 1.6 0.18 0.66 0.66 99 1009.7
20260506071749 6 252 0.0 4.8 0.30 0.66 0.66 99 1009.6
20260506071247 6 350 1.6 1.6 0.13 0.64 0.64 99 1009.6
20260506070744 6 298 0.0 3.2 0.18 0.61 0.61 99 1009.5
20260506070241 6 251 1.6 4.8 0.13 0.58 0.58 99 1009.5
20260506062218 7 356 1.6 4.8 0.30 0.43 0.43 99 1009.5
20260506061714 7 181 0.0 0.0 0.30 0.41 0.41 99 1009.3
20260506061211 7 242 0.0 3.2 0.30 0.38 0.38 99 1009.5
20260506060710 7 284 1.6 4.8 0.30 0.36 0.36 99 1009.3
20260506060206 7 37 3.2 3.2 0.13 0.30 0.30 99 1009.4
20260506051138 8 175 0.0 1.6 0.18 0.15 0.15 99 1009.7
20260506050637 8 287 0.0 0.0 0.00 0.13 0.13 99 1009.7
20260506050133 8 235 0.0 0.0 0.13 0.13 0.13 99 1009.8
20260506045127 8 46 0.0 0.0 0.00 0.10 0.10 99 1009.6
20260506044625 8 46 0.0 0.0 0.18 0.10 0.10 99 1009.7
20260506044121 8 138 0.0 0.0 0.13 0.08 0.08 99 1009.6
20260506043619 8 0 0.0 3.2 0.13 0.08 0.08 99 1009.7
20260506043117 8 220 0.0 0.0 0.18 0.05 0.05 99 1009.5
20260506042615 8 21 0.0 3.2 0.18 0.05 0.05 99 1009.7
20260506042113 8 274 0.0 0.0 0.00 0.03 0.03 99 1009.8
20260506041612 8 325 0.0 0.0 0.00 0.03 0.03 99 1009.7
20260506041108 8 8 0.0 0.0 0.13 0.03 0.03 99 1009.8
20260506040606 8 295 0.0 1.6 0.13 0.03 0.03 99 1009.8
20260506035559 8 199 0.0 1.6 0.00 2.72 2.72 99 1009.8
20260506035055 8 282 0.0 0.0 0.13 2.72 2.72 99 1010.0
20260506034553 8 332 0.0 1.6 0.30 2.72 2.72 99 1010.0
20260506034049 8 283 0.0 1.6 0.18 2.69 2.69 99 1010.2
20260506033547 8 289 0.0 3.2 0.13 2.67 2.67 99 1010.3
20260506033044 8 286 0.0 0.0 0.48 2.67 2.67 99 1010.3
20260506032541 8 323 0.0 3.2 0.48 2.64 2.64 99 1010.3
20260506032038 8 6 0.0 1.6 0.13 2.59 2.59 99 1010.5
20260506031536 8 294 0.0 1.6 0.18 2.57 2.57 99 1010.6
20260506031032 8 247 0.0 0.0 0.30 2.57 2.57 99 1010.4
20260506030531 8 294 0.0 1.6 0.13 2.54 2.54 99 1010.6
20260506030027 8 291 0.0 0.0 0.18 2.51 2.51 99 1010.7
20260506025524 8 96 0.0 0.0 0.18 2.51 2.51 99 1010.8
20260506025020 8 107 0.0 3.2 0.13 2.49 2.49 99 1010.7
20260506024517 8 328 0.0 3.2 0.18 2.46 2.46 99 1010.8
20260506024014 9 307 4.8 4.8 0.30 2.46 2.46 99 1010.8
20260506023510 9 321 1.6 3.2 0.13 2.44 2.44 99 1010.5
20260506023008 9 307 1.6 1.6 0.18 2.41 2.41 99 1010.7
20260506022505 9 6 0.0 4.8 0.30 2.41 2.41 99 1010.7
20260506022002 9 300 0.0 3.2 0.30 2.39 2.39 99 1010.8
20260506021459 9 306 1.6 3.2 0.30 2.36 2.36 99 1010.7
20260506020957 9 320 0.0 0.0 0.30 2.34 2.34 99 1010.7
20260506020454 9 223 0.0 1.6 0.36 2.31 2.31 99 1010.8
20260506015951 9 244 0.0 1.6 0.30 2.29 2.29 99 1010.3
20260506015449 9 239 0.0 1.6 0.18 2.24 2.24 99 1010.5
20260506014945 9 23 0.0 0.0 0.30 2.24 2.24 99 1010.3
20260506014442 9 22 0.0 0.0 0.30 2.21 2.21 99 1010.3
20260506013939 9 23 0.0 0.0 0.18 2.18 2.18 99 1010.2
20260506013437 9 289 0.0 1.6 0.13 2.16 2.16 99 1010.4
20260506012933 9 232 0.0 1.6 0.30 2.16 2.16 99 1010.1
20260506012429 9 75 0.0 1.6 0.30 2.13 2.13 99 1010.1
20260506011926 9 300 0.0 1.6 0.13 2.11 2.11 99 1010.2
20260506011424 9 173 1.6 1.6 0.18 2.08 2.08 99 1010.1
20260506010920 9 304 0.0 4.8 0.30 2.08 2.08 98 1009.7
20260506010419 9 289 1.6 4.8 0.43 2.06 2.06 98 1009.8
20260506005915 9 355 0.0 1.6 0.66 2.03 2.03 98 1009.8
20260506005413 10 302 1.6 9.7 0.97 1.98 1.98 98 1009.8
20260506004908 10 350 1.6 4.8 1.19 1.91 1.91 98 1009.8
20260506004407 11 301 4.8 9.7 1.27 1.80 1.80 98 1009.8
20260506003902 11 342 1.6 3.2 0.79 1.68 1.68 99 1009.4
20260506003358 12 171 0.0 0.0 0.61 1.60 1.60 99 1009.3
20260506002855 12 331 1.6 1.6 0.43 1.55 1.55 99 1009.3
20260506002351 12 328 0.0 0.0 0.43 1.50 1.50 99 1009.0
20260506001847 12 309 0.0 0.0 0.79 1.47 1.47 99 1009.2
20260506001344 12 309 0.0 0.0 0.61 1.40 1.40 99 1009.1
20260506000841 12 269 0.0 0.0 0.48 1.35 1.35 98 1009.2
20260506000340 12 322 0.0 0.0 0.30 1.30 1.30 98 1009.2
20260505235835 12 322 0.0 0.0 0.30 1.27 1.27 98 1009.1
20260505235333 12 316 0.0 0.0 0.13 1.22 1.22 98 1009.1
20260505234830 12 316 0.0 0.0 0.30 1.22 1.22 98 1009.2
20260505234328 13 258 0.0 0.0 0.30 1.19 1.19 98 1009.1
20260505233824 13 331 0.0 1.6 0.43 1.17 1.17 98 1009.2
20260505233322 13 331 0.0 1.6 0.61 1.14 1.14 98 1009.6
20260505232819 13 262 0.0 1.6 0.48 1.09 1.09 98 1009.3
20260505232317 13 246 0.0 0.0 0.48 1.04 1.04 98 1009.6
20260505231813 13 343 0.0 1.6 0.48 1.02 1.02 98 1009.5
20260505231312 13 259 0.0 1.6 0.30 0.97 0.97 98 1009.3
20260505230809 13 191 1.6 1.6 0.00 0.91 0.91 98 1009.5
20260505230306 13 230 0.0 0.0 0.00 0.91 0.91 98 1009.5
20260505225803 13 230 0.0 0.0 0.00 0.91 0.91 98 1009.4
20260505225300 13 230 0.0 0.0 0.00 0.91 0.91 98 1009.5
20260505224755 13 230 0.0 0.0 0.18 0.91 0.91 98 1009.5
20260505224253 13 230 0.0 0.0 0.18 0.91 0.91 98 1009.8
20260505223750 13 230 0.0 0.0 0.13 0.89 0.89 98 1009.6
20260505223247 13 230 0.0 0.0 0.30 0.89 0.89 98 1009.8
20260505222742 13 229 0.0 1.6 0.30 0.86 0.86 97 1009.8
20260505222239 13 273 0.0 1.6 0.43 0.84 0.84 97 1010.0
20260505221736 14 276 0.0 0.0 0.48 0.81 0.81 97 1009.7
20260505221233 14 325 0.0 1.6 0.48 0.76 0.76 97 1009.6
20260505220729 14 304 0.0 1.6 0.48 0.74 0.74 97 1009.8
20260505220227 14 319 0.0 0.0 1.07 0.69 0.69 96 1009.7
20260505215725 14 345 0.0 0.0 1.98 0.64 0.64 96 1009.8
20260505215223 14 324 0.0 1.6 1.68 0.51 0.51 96 1010.2
20260505214720 15 273 0.0 1.6 0.61 0.30 0.30 95 1010.1
20260505214218 15 228 0.0 0.0 0.13 0.23 0.23 94 1009.5
20260505213715 -17 0.0 0.0 0.00 0.20 0.20 1009.2
20260505213212 15 228 0.0 0.0 0.00 0.20 0.20 94 1009.0
20260505212708 15 228 0.0 1.6 0.00 0.20 0.20 94 1009.1
20260505212205 -17 0.0 0.0 0.00 0.20 0.20 1009.1
20260505211702 -17 0.0 0.0 0.00 0.20 0.20 1009.2
20260505211159 15 271 0.0 0.0 0.00 0.20 0.20 94 1009.2
20260505210656 15 271 0.0 0.0 0.00 0.20 0.20 94 1009.2
20260505210153 15 279 0.0 0.0 0.00 0.20 0.20 94 1009.4
20260505205650 15 339 0.0 0.0 0.00 0.20 0.20 94 1009.3
20260505205148 15 357 0.0 0.0 0.00 0.20 0.20 95 1009.2
20260505204644 15 276 1.6 1.6 0.00 0.20 0.20 95 1009.5
20260505204143 14 338 0.0 1.6 0.00 0.20 0.20 95 1009.6
20260505203639 14 264 0.0 0.0 0.00 0.20 0.20 95 1009.6
20260505203136 14 276 0.0 0.0 0.00 0.20 0.20 94 1009.6
20260505202632 14 264 0.0 0.0 0.00 0.20 0.20 95 1009.7
20260505202128 14 7 0.0 0.0 0.00 0.20 0.20 94 1009.5
20260505201619 14 7 0.0 1.6 0.18 0.20 0.20 94 1009.7
20260505201117 15 300 0.0 0.0 0.48 0.20 0.20 94 1010.0
20260505200615 14 282 0.0 0.0 0.30 0.18 0.18 94 1010.0
20260505200112 -17 0.0 0.0 0.00 0.13 0.13 1010.1
20260505195608 -17 0.0 0.0 0.00 0.13 0.13 1009.8
20260505195106 -17 0.0 0.0 0.00 0.13 0.13 1010.0
20260505194602 -17 0.0 0.0 0.00 0.13 0.13 1010.0
20260505194057 15 20 0.0 0.0 0.13 0.13 0.13 90 1010.2
20260505193555 15 20 0.0 0.0 0.61 0.13 0.13 90 1010.4
20260505193052 -17 0.0 0.0 0.00 0.03 0.03 1010.2
20260505192550 -17 0.0 0.0 0.00 0.03 0.03 1010.1
20260505192048 -17 0.0 0.0 0.00 0.03 0.03 1010.2
20260505191545 -17 0.0 0.0 0.00 0.03 0.03 1010.1
20260505191043 -17 0.0 0.0 0.00 0.03 0.03 1010.0
20260505190538 -17 0.0 0.0 0.00 0.03 0.03 1010.0
20260505190034 -17 0.0 0.0 0.00 0.03 0.03 1010.0
20260505185531 -17 0.0 0.0 0.00 0.03 0.03 1009.8